"Time","Value","Approval","myLocation"
"2023-04-19 00:00",6.20658723121259,"Approved","OW478"
"2023-04-19 01:00",6.20758335180669,"Approved","OW478"
"2023-04-19 02:00",6.2075794724008,"Approved","OW478"
"2023-04-19 03:00",6.2085755929949,"Approved","OW478"
"2023-04-19 04:00",6.208571713589,"Approved","OW478"
"2023-04-19 05:00",6.20856783418311,"Approved","OW478"
"2023-04-19 06:00",6.20856395477721,"Approved","OW478"
"2023-04-19 07:00",6.20856007537131,"Approved","OW478"
"2023-04-19 08:00",6.20855619596542,"Approved","OW478"
"2023-04-19 09:00",6.20955231655952,"Approved","OW478"
"2023-04-19 10:00",6.20954843715363,"Approved","OW478"
"2023-04-19 11:00",6.20954455774773,"Approved","OW478"
"2023-04-19 12:00",6.20954067834183,"Approved","OW478"
"2023-04-19 13:00",6.21053679893593,"Approved","OW478"
"2023-04-19 14:00",6.21053291953004,"Approved","OW478"
"2023-04-19 15:00",6.21052904012414,"Approved","OW478"
"2023-04-19 16:00",6.21152516071824,"Approved","OW478"
"2023-04-19 17:00",6.21152128131235,"Approved","OW478"
"2023-04-19 18:00",6.21151740190645,"Approved","OW478"
"2023-04-19 19:00",6.21151352250055,"Approved","OW478"
"2023-04-19 20:00",6.21250964309466,"Approved","OW478"
"2023-04-19 21:00",6.21250576368876,"Approved","OW478"
"2023-04-19 22:00",6.21250188428286,"Approved","OW478"
"2023-04-19 23:00",6.21149800487697,"Approved","OW478"
"2023-04-20 00:00",6.21249412547107,"Approved","OW478"
"2023-04-20 01:00",6.21249024606517,"Approved","OW478"
"2023-04-20 02:00",6.21248636665928,"Approved","OW478"
"2023-04-20 03:00",6.21248248725338,"Approved","OW478"
"2023-04-20 04:00",6.21347860784748,"Approved","OW478"
"2023-04-20 05:00",6.21347472844159,"Approved","OW478"
"2023-04-20 06:00",6.21447084903569,"Approved","OW478"
"2023-04-20 07:00",6.21446696962979,"Approved","OW478"
"2023-04-20 08:00",6.2144630902239,"Approved","OW478"
"2023-04-20 09:00",6.215459210818,"Approved","OW478"
"2023-04-20 10:00",6.2154553314121,"Approved","OW478"
"2023-04-20 11:00",6.21545145200621,"Approved","OW478"
"2023-04-20 12:00",6.21544757260031,"Approved","OW478"
"2023-04-20 13:00",6.21444369319441,"Approved","OW478"
"2023-04-20 14:00",6.21543981378852,"Approved","OW478"
"2023-04-20 15:00",6.21543593438262,"Approved","OW478"
"2023-04-20 16:00",6.21543205497672,"Approved","OW478"
"2023-04-20 17:00",6.21542817557083,"Approved","OW478"
"2023-04-20 18:00",6.21542429616493,"Approved","OW478"
"2023-04-20 19:00",6.21742041675903,"Approved","OW478"
"2023-04-20 20:00",6.21841653735314,"Approved","OW478"
"2023-04-20 21:00",6.21841265794724,"Approved","OW478"
"2023-04-20 22:00",6.21740877854134,"Approved","OW478"
"2023-04-20 23:00",6.21840489913545,"Approved","OW478"
"2023-04-21 00:00",6.21840101972955,"Approved","OW478"
"2023-04-21 01:00",6.21639714032365,"Approved","OW478"
"2023-04-21 02:00",6.21539326091776,"Approved","OW478"
"2023-04-21 03:00",6.21538938151186,"Approved","OW478"
"2023-04-21 04:00",6.21638550210596,"Approved","OW478"
"2023-04-21 05:00",6.21638162270007,"Approved","OW478"
"2023-04-21 06:00",6.21637774329417,"Approved","OW478"
"2023-04-21 07:00",6.21637386388827,"Approved","OW478"
"2023-04-21 08:00",6.21736998448238,"Approved","OW478"
"2023-04-21 09:00",6.21736610507648,"Approved","OW478"
"2023-04-21 10:00",6.21736222567058,"Approved","OW478"
"2023-04-21 11:00",6.21835834626469,"Approved","OW478"
"2023-04-21 12:00",6.21835446685879,"Approved","OW478"
"2023-04-21 13:00",6.21935058745289,"Approved","OW478"
"2023-04-21 14:00",6.219346708047,"Approved","OW478"
"2023-04-21 15:00",6.2203428286411,"Approved","OW478"
"2023-04-21 16:00",6.2203389492352,"Approved","OW478"
"2023-04-21 17:00",6.22033506982931,"Approved","OW478"
"2023-04-21 18:00",6.21933119042341,"Approved","OW478"
"2023-04-21 19:00",6.21932731101751,"Approved","OW478"
"2023-04-21 20:00",6.21932343161162,"Approved","OW478"
"2023-04-21 21:00",6.21831955220572,"Approved","OW478"
"2023-04-21 22:00",6.21931567279982,"Approved","OW478"
"2023-04-21 23:00",6.21931179339393,"Approved","OW478"
"2023-04-22 00:00",6.21930791398803,"Approved","OW478"
"2023-04-22 01:00",6.21930403458213,"Approved","OW478"
"2023-04-22 02:00",6.21930015517624,"Approved","OW478"
"2023-04-22 03:00",6.21929627577034,"Approved","OW478"
"2023-04-22 04:00",6.21929239636444,"Approved","OW478"
"2023-04-22 05:00",6.22028851695855,"Approved","OW478"
"2023-04-22 06:00",6.21928463755265,"Approved","OW478"
"2023-04-22 07:00",6.22028075814675,"Approved","OW478"
"2023-04-22 08:00",6.22027687874086,"Approved","OW478"
"2023-04-22 09:00",6.22027299933496,"Approved","OW478"
"2023-04-22 10:00",6.22026911992906,"Approved","OW478"
"2023-04-22 11:00",6.22026524052317,"Approved","OW478"
"2023-04-22 12:00",6.22026136111727,"Approved","OW478"
"2023-04-22 13:00",6.21925748171137,"Approved","OW478"
"2023-04-22 14:00",6.22025360230548,"Approved","OW478"
"2023-04-22 15:00",6.22124972289958,"Approved","OW478"
"2023-04-22 16:00",6.22124584349368,"Approved","OW478"
"2023-04-22 17:00",6.22124196408779,"Approved","OW478"
"2023-04-22 18:00",6.22123808468189,"Approved","OW478"
"2023-04-22 19:00",6.22123420527599,"Approved","OW478"
"2023-04-22 20:00",6.2212303258701,"Approved","OW478"
"2023-04-22 21:00",6.2202264464642,"Approved","OW478"
"2023-04-22 22:00",6.2202225670583,"Approved","OW478"
"2023-04-22 23:00",6.22021868765241,"Approved","OW478"
"2023-04-23 00:00",6.21921480824651,"Approved","OW478"
"2023-04-23 01:00",6.21921092884061,"Approved","OW478"
"2023-04-23 02:00",6.21620704943471,"Approved","OW478"
"2023-04-23 03:00",6.21620317002882,"Approved","OW478"
"2023-04-23 04:00",6.21619929062292,"Approved","OW478"
"2023-04-23 05:00",6.21719541121703,"Approved","OW478"
"2023-04-23 06:00",6.21919153181113,"Approved","OW478"
"2023-04-23 07:00",6.22018765240523,"Approved","OW478"
"2023-04-23 08:00",6.22118377299933,"Approved","OW478"
"2023-04-23 09:00",6.22017989359344,"Approved","OW478"
"2023-04-23 10:00",6.21917601418754,"Approved","OW478"
"2023-04-23 11:00",6.21617213478164,"Approved","OW478"
"2023-04-23 12:00",6.21516825537575,"Approved","OW478"
"2023-04-23 13:00",6.21416437596985,"Approved","OW478"
"2023-04-23 14:00",6.21416049656395,"Approved","OW478"
"2023-04-23 15:00",6.21215661715806,"Approved","OW478"
"2023-04-23 16:00",6.21115273775216,"Approved","OW478"
"2023-04-23 17:00",6.21014885834626,"Approved","OW478"
"2023-04-23 18:00",6.21214497894037,"Approved","OW478"
"2023-04-23 19:00",6.21314109953447,"Approved","OW478"
"2023-04-23 20:00",6.21413722012857,"Approved","OW478"
"2023-04-23 21:00",6.21513334072268,"Approved","OW478"
"2023-04-23 22:00",6.21512946131678,"Approved","OW478"
"2023-04-23 23:00",6.21612558191088,"Approved","OW478"
"2023-04-24 00:00",6.21412170250499,"Approved","OW478"
"2023-04-24 01:00",6.21211782309909,"Approved","OW478"
"2023-04-24 02:00",6.21011394369319,"Approved","OW478"
"2023-04-24 03:00",6.2101100642873,"Approved","OW478"
"2023-04-24 04:00",6.2121061848814,"Approved","OW478"
"2023-04-24 05:00",6.2131023054755,"Approved","OW478"
"2023-04-24 06:00",6.21309842606961,"Approved","OW478"
"2023-04-24 07:00",6.21409454666371,"Approved","OW478"
"2023-04-24 08:00",6.21409066725781,"Approved","OW478"
"2023-04-24 09:00",6.21308678785192,"Approved","OW478"
"2023-04-24 10:00",6.21308290844602,"Approved","OW478"
"2023-04-24 11:00",6.21307902904012,"Approved","OW478"
"2023-04-24 12:00",6.21307514963423,"Approved","OW478"
"2023-04-24 13:00",6.21307127022833,"Approved","OW478"
"2023-04-24 14:00",6.21306739082243,"Approved","OW478"
"2023-04-24 15:00",6.21306351141654,"Approved","OW478"
"2023-04-24 16:00",6.21305963201064,"Approved","OW478"
"2023-04-24 17:00",6.21405575260474,"Approved","OW478"
"2023-04-24 18:00",6.21405187319885,"Approved","OW478"
"2023-04-24 19:00",6.21304799379295,"Approved","OW478"
"2023-04-24 20:00",6.21304411438705,"Approved","OW478"
"2023-04-24 21:00",6.21204023498116,"Approved","OW478"
"2023-04-24 22:00",6.21103635557526,"Approved","OW478"
"2023-04-24 23:00",6.21003247616936,"Approved","OW478"
"2023-04-25 00:00",6.20902859676347,"Approved","OW478"
"2023-04-25 01:00",6.20802471735757,"Approved","OW478"
"2023-04-25 02:00",6.20702083795167,"Approved","OW478"
"2023-04-25 03:00",6.20701695854578,"Approved","OW478"
"2023-04-25 04:00",6.20801307913988,"Approved","OW478"
"2023-04-25 05:00",6.21000919973398,"Approved","OW478"
"2023-04-25 06:00",6.21100532032809,"Approved","OW478"
"2023-04-25 07:00",6.21300144092219,"Approved","OW478"
"2023-04-25 08:00",6.21199756151629,"Approved","OW478"
"2023-04-25 09:00",6.2119936821104,"Approved","OW478"
"2023-04-25 10:00",6.2109898027045,"Approved","OW478"
"2023-04-25 11:00",6.2119859232986,"Approved","OW478"
"2023-04-25 12:00",6.21198204389271,"Approved","OW478"
"2023-04-25 13:00",6.21097816448681,"Approved","OW478"
"2023-04-25 14:00",6.21097428508091,"Approved","OW478"
"2023-04-25 15:00",6.21097040567502,"Approved","OW478"
"2023-04-25 16:00",6.21096652626912,"Approved","OW478"
"2023-04-25 17:00",6.21096264686322,"Approved","OW478"
"2023-04-25 18:00",6.21195876745733,"Approved","OW478"
"2023-04-25 19:00",6.21395488805143,"Approved","OW478"
"2023-04-25 20:00",6.21595100864553,"Approved","OW478"
"2023-04-25 21:00",6.21494712923964,"Approved","OW478"
"2023-04-25 22:00",6.21394324983374,"Approved","OW478"
"2023-04-25 23:00",6.21293937042784,"Approved","OW478"
"2023-04-26 00:00",6.21093549102195,"Approved","OW478"
"2023-04-26 01:00",6.21093161161605,"Approved","OW478"
"2023-04-26 02:00",6.21292773221015,"Approved","OW478"
"2023-04-26 03:00",6.21392385280426,"Approved","OW478"
"2023-04-26 04:00",6.21491997339836,"Approved","OW478"
"2023-04-26 05:00",6.21691609399246,"Approved","OW478"
"2023-04-26 06:00",6.21691221458657,"Approved","OW478"
"2023-04-26 07:00",6.21890833518067,"Approved","OW478"
"2023-04-26 08:00",6.21990445577477,"Approved","OW478"
"2023-04-26 09:00",6.22090057636888,"Approved","OW478"
"2023-04-26 10:00",6.22089669696298,"Approved","OW478"
"2023-04-26 11:00",6.22089281755708,"Approved","OW478"
"2023-04-26 12:00",6.21888893815119,"Approved","OW478"
"2023-04-26 13:00",6.21788505874529,"Approved","OW478"
"2023-04-26 14:00",6.21588117933939,"Approved","OW478"
"2023-04-26 15:00",6.2138772999335,"Approved","OW478"
"2023-04-26 16:00",6.2138734205276,"Approved","OW478"
"2023-04-26 17:00",6.2148695411217,"Approved","OW478"
"2023-04-26 18:00",6.21686566171581,"Approved","OW478"
"2023-04-26 19:00",6.21686178230991,"Approved","OW478"
"2023-04-26 20:00",6.21785790290401,"Approved","OW478"
"2023-04-26 21:00",6.21685402349812,"Approved","OW478"
"2023-04-26 22:00",6.21685014409222,"Approved","OW478"
"2023-04-26 23:00",6.21684626468632,"Approved","OW478"
"2023-04-27 00:00",6.21584238528043,"Approved","OW478"
"2023-04-27 01:00",6.21483850587453,"Approved","OW478"
"2023-04-27 02:00",6.21383462646863,"Approved","OW478"
"2023-04-27 03:00",6.21283074706274,"Approved","OW478"
"2023-04-27 04:00",6.21282686765684,"Approved","OW478"
"2023-04-27 05:00",6.21282298825094,"Approved","OW478"
"2023-04-27 06:00",6.21281910884505,"Approved","OW478"
"2023-04-27 07:00",6.21281522943915,"Approved","OW478"
"2023-04-27 08:00",6.21381135003325,"Approved","OW478"
"2023-04-27 09:00",6.21480747062736,"Approved","OW478"
"2023-04-27 10:00",6.21580359122146,"Approved","OW478"
"2023-04-27 11:00",6.21679971181556,"Approved","OW478"
"2023-04-27 12:00",6.21679583240967,"Approved","OW478"
"2023-04-27 13:00",6.21579195300377,"Approved","OW478"
"2023-04-27 14:00",6.21578807359787,"Approved","OW478"
"2023-04-27 15:00",6.21678419419198,"Approved","OW478"
"2023-04-27 16:00",6.21578031478608,"Approved","OW478"
"2023-04-27 17:00",6.21677643538018,"Approved","OW478"
"2023-04-27 18:00",6.21777255597429,"Approved","OW478"
"2023-04-27 19:00",6.21876867656839,"Approved","OW478"
"2023-04-27 20:00",6.21976479716249,"Approved","OW478"
"2023-04-27 21:00",6.22176091775659,"Approved","OW478"
"2023-04-27 22:00",6.2217570383507,"Approved","OW478"
"2023-04-27 23:00",6.2217531589448,"Approved","OW478"
"2023-04-28 00:00",6.2217492795389,"Approved","OW478"
"2023-04-28 01:00",6.21974540013301,"Approved","OW478"
"2023-04-28 02:00",6.21774152072711,"Approved","OW478"
"2023-04-28 03:00",6.21673764132121,"Approved","OW478"
"2023-04-28 04:00",6.21673376191532,"Approved","OW478"
"2023-04-28 05:00",6.21572988250942,"Approved","OW478"
"2023-04-28 06:00",6.21472600310352,"Approved","OW478"
"2023-04-28 07:00",6.21472212369763,"Approved","OW478"
"2023-04-28 08:00",6.21171824429173,"Approved","OW478"
"2023-04-28 09:00",6.21071436488583,"Approved","OW478"
"2023-04-28 10:00",6.20971048547994,"Approved","OW478"
"2023-04-28 11:00",6.20870660607404,"Approved","OW478"
"2023-04-28 12:00",6.20770272666814,"Approved","OW478"
"2023-04-28 13:00",6.20669884726225,"Approved","OW478"
"2023-04-28 14:00",6.20769496785635,"Approved","OW478"
"2023-04-28 15:00",6.20869108845045,"Approved","OW478"
"2023-04-28 16:00",6.20968720904456,"Approved","OW478"
"2023-04-28 17:00",6.21068332963866,"Approved","OW478"
"2023-04-28 18:00",6.20967945023276,"Approved","OW478"
"2023-04-28 19:00",6.20967557082687,"Approved","OW478"
"2023-04-28 20:00",6.20967169142097,"Approved","OW478"
"2023-04-28 21:00",6.20966781201507,"Approved","OW478"
"2023-04-28 22:00",6.20866393260918,"Approved","OW478"
"2023-04-28 23:00",6.20866005320328,"Approved","OW478"
"2023-04-29 00:00",6.20665617379738,"Approved","OW478"
"2023-04-29 01:00",6.20465229439149,"Approved","OW478"
"2023-04-29 02:00",6.20164841498559,"Approved","OW478"
"2023-04-29 03:00",6.19764453557969,"Approved","OW478"
"2023-04-29 04:00",6.1946406561738,"Approved","OW478"
"2023-04-29 05:00",6.1906367767679,"Approved","OW478"
"2023-04-29 06:00",6.187632897362,"Approved","OW478"
"2023-04-29 07:00",6.18562901795611,"Approved","OW478"
"2023-04-29 08:00",6.18362513855021,"Approved","OW478"
"2023-04-29 09:00",6.18162125914431,"Approved","OW478"
"2023-04-29 10:00",6.17961737973842,"Approved","OW478"
"2023-04-29 11:00",6.17861350033252,"Approved","OW478"
"2023-04-29 12:00",6.17760962092662,"Approved","OW478"
"2023-04-29 13:00",6.17660574152073,"Approved","OW478"
"2023-04-29 14:00",6.17660186211483,"Approved","OW478"
"2023-04-29 15:00",6.17659798270893,"Approved","OW478"
"2023-04-29 16:00",6.17659410330304,"Approved","OW478"
"2023-04-29 17:00",6.17659022389714,"Approved","OW478"
"2023-04-29 18:00",6.17658634449124,"Approved","OW478"
"2023-04-29 19:00",6.17558246508535,"Approved","OW478"
"2023-04-29 20:00",6.17557858567945,"Approved","OW478"
"2023-04-29 21:00",6.17457470627355,"Approved","OW478"
"2023-04-29 22:00",6.17257082686766,"Approved","OW478"
"2023-04-29 23:00",6.16856694746176,"Approved","OW478"
"2023-04-30 00:00",6.16256306805586,"Approved","OW478"
"2023-04-30 01:00",6.15555918864997,"Approved","OW478"
"2023-04-30 02:00",6.14855530924407,"Approved","OW478"
"2023-04-30 03:00",6.14255142983817,"Approved","OW478"
"2023-04-30 04:00",6.13754755043228,"Approved","OW478"
"2023-04-30 05:00",6.13354367102638,"Approved","OW478"
"2023-04-30 06:00",6.13053979162048,"Approved","OW478"
"2023-04-30 07:00",6.12753591221459,"Approved","OW478"
"2023-04-30 08:00",6.12553203280869,"Approved","OW478"
"2023-04-30 09:00",6.12452815340279,"Approved","OW478"
"2023-04-30 10:00",6.1235242739969,"Approved","OW478"
"2023-04-30 11:00",6.122520394591,"Approved","OW478"
"2023-04-30 12:00",6.1225165151851,"Approved","OW478"
"2023-04-30 13:00",6.12351263577921,"Approved","OW478"
"2023-04-30 14:00",6.12350875637331,"Approved","OW478"
"2023-04-30 15:00",6.12450487696741,"Approved","OW478"
"2023-04-30 16:00",6.12550099756152,"Approved","OW478"
"2023-04-30 17:00",6.12649711815562,"Approved","OW478"
"2023-04-30 18:00",6.12749323874972,"Approved","OW478"
"2023-04-30 19:00",6.12848935934383,"Approved","OW478"
"2023-04-30 20:00",6.12948547993793,"Approved","OW478"
"2023-04-30 21:00",6.13048160053203,"Approved","OW478"
"2023-04-30 22:00",6.13147772112614,"Approved","OW478"
"2023-04-30 23:00",6.13147384172024,"Approved","OW478"
"2023-05-01 00:00",6.13146996231434,"Approved","OW478"
"2023-05-01 01:00",6.13146608290845,"Approved","OW478"
"2023-05-01 02:00",6.13146220350255,"Approved","OW478"
"2023-05-01 03:00",6.13045832409665,"Approved","OW478"
"2023-05-01 04:00",6.13145444469076,"Approved","OW478"
"2023-05-01 05:00",6.13145056528486,"Approved","OW478"
"2023-05-01 06:00",6.13244668587896,"Approved","OW478"
"2023-05-01 07:00",6.13244280647307,"Approved","OW478"
"2023-05-01 08:00",6.13243892706717,"Approved","OW478"
"2023-05-01 09:00",6.13343504766127,"Approved","OW478"
"2023-05-01 10:00",6.13343116825538,"Approved","OW478"
"2023-05-01 11:00",6.13442728884948,"Approved","OW478"
"2023-05-01 12:00",6.13442340944358,"Approved","OW478"
"2023-05-01 13:00",6.13541953003769,"Approved","OW478"
"2023-05-01 14:00",6.13641565063179,"Approved","OW478"
"2023-05-01 15:00",6.13741177122589,"Approved","OW478"
"2023-05-01 16:00",6.13840789182,"Approved","OW478"
"2023-05-01 17:00",6.1404040124141,"Approved","OW478"
"2023-05-01 18:00",6.1404001330082,"Approved","OW478"
"2023-05-01 19:00",6.14139625360231,"Approved","OW478"
"2023-05-01 20:00",6.14239237419641,"Approved","OW478"
"2023-05-01 21:00",6.14438849479051,"Approved","OW478"
"2023-05-01 22:00",6.14638461538462,"Approved","OW478"
"2023-05-01 23:00",6.14838073597872,"Approved","OW478"
"2023-05-02 00:00",6.15037685657282,"Approved","OW478"
"2023-05-02 01:00",6.15037297716693,"Approved","OW478"
"2023-05-02 02:00",6.14936909776103,"Approved","OW478"
"2023-05-02 03:00",6.14636521835513,"Approved","OW478"
"2023-05-02 04:00",6.14136133894924,"Approved","OW478"
"2023-05-02 05:00",6.13535745954334,"Approved","OW478"
"2023-05-02 06:00",6.12935358013744,"Approved","OW478"
"2023-05-02 07:00",6.12534970073155,"Approved","OW478"
"2023-05-02 08:00",6.12234582132565,"Approved","OW478"
"2023-05-02 09:00",6.12134194191975,"Approved","OW478"
"2023-05-02 10:00",6.11833806251386,"Approved","OW478"
"2023-05-02 11:00",6.11733418310796,"Approved","OW478"
"2023-05-02 12:00",6.11633030370206,"Approved","OW478"
"2023-05-02 13:00",6.11632642429617,"Approved","OW478"
"2023-05-02 14:00",6.11632254489027,"Approved","OW478"
"2023-05-02 15:00",6.11631866548437,"Approved","OW478"
"2023-05-02 16:00",6.11631478607847,"Approved","OW478"
"2023-05-02 17:00",6.11731090667258,"Approved","OW478"
"2023-05-02 18:00",6.11830702726668,"Approved","OW478"
"2023-05-02 19:00",6.12030314786078,"Approved","OW478"
"2023-05-02 20:00",6.12029926845489,"Approved","OW478"
"2023-05-02 21:00",6.12029538904899,"Approved","OW478"
"2023-05-02 22:00",6.11829150964309,"Approved","OW478"
"2023-05-02 23:00",6.1142876302372,"Approved","OW478"
"2023-05-03 00:00",6.1102837508313,"Approved","OW478"
"2023-05-03 01:00",6.1042798714254,"Approved","OW478"
"2023-05-03 02:00",6.10027599201951,"Approved","OW478"
"2023-05-03 03:00",6.09527211261361,"Approved","OW478"
"2023-05-03 04:00",6.09026823320771,"Approved","OW478"
"2023-05-03 05:00",6.08626435380182,"Approved","OW478"
"2023-05-03 06:00",6.08326047439592,"Approved","OW478"
"2023-05-03 07:00",6.08425659499002,"Approved","OW478"
"2023-05-03 08:00",6.07725271558413,"Approved","OW478"
"2023-05-03 09:00",6.07524883617823,"Approved","OW478"
"2023-05-03 10:00",6.07324495677233,"Approved","OW478"
"2023-05-03 11:00",6.07324107736644,"Approved","OW478"
"2023-05-03 12:00",6.07223719796054,"Approved","OW478"
"2023-05-03 13:00",6.07223331855464,"Approved","OW478"
"2023-05-03 14:00",6.07122943914875,"Approved","OW478"
"2023-05-03 15:00",6.07222555974285,"Approved","OW478"
"2023-05-03 16:00",6.07322168033695,"Approved","OW478"
"2023-05-03 17:00",6.07521780093106,"Approved","OW478"
"2023-05-03 18:00",6.07621392152516,"Approved","OW478"
"2023-05-03 19:00",6.07821004211926,"Approved","OW478"
"2023-05-03 20:00",6.07920616271337,"Approved","OW478"
"2023-05-03 21:00",6.08020228330747,"Approved","OW478"
"2023-05-03 22:00",6.07919840390157,"Approved","OW478"
"2023-05-03 23:00",6.07719452449568,"Approved","OW478"
"2023-05-04 00:00",6.07219064508978,"Approved","OW478"
"2023-05-04 01:00",6.06818676568388,"Approved","OW478"
"2023-05-04 02:00",6.06318288627799,"Approved","OW478"
"2023-05-04 03:00",6.05817900687209,"Approved","OW478"
"2023-05-04 04:00",6.05417512746619,"Approved","OW478"
"2023-05-04 05:00",6.0511712480603,"Approved","OW478"
"2023-05-04 06:00",6.0491673686544,"Approved","OW478"
"2023-05-04 07:00",6.0471634892485,"Approved","OW478"
"2023-05-04 08:00",6.04515960984261,"Approved","OW478"
"2023-05-04 09:00",6.04415573043671,"Approved","OW478"
"2023-05-04 10:00",6.04415185103081,"Approved","OW478"
"2023-05-04 11:00",6.04314797162492,"Approved","OW478"
"2023-05-04 12:00",6.04414409221902,"Approved","OW478"
"2023-05-04 13:00",6.04514021281312,"Approved","OW478"
"2023-05-04 14:00",6.04513633340723,"Approved","OW478"
"2023-05-04 15:00",6.04613245400133,"Approved","OW478"
"2023-05-04 16:00",6.04712857459543,"Approved","OW478"
"2023-05-04 17:00",6.04712469518954,"Approved","OW478"
"2023-05-04 18:00",6.04912081578364,"Approved","OW478"
"2023-05-04 19:00",6.05211693637774,"Approved","OW478"
"2023-05-04 20:00",6.05311305697185,"Approved","OW478"
"2023-05-04 21:00",6.05410917756595,"Approved","OW478"
"2023-05-04 22:00",6.05210529816005,"Approved","OW478"
"2023-05-04 23:00",6.04910141875416,"Approved","OW478"
"2023-05-05 00:00",6.04509753934826,"Approved","OW478"
"2023-05-05 01:00",6.04209365994236,"Approved","OW478"
"2023-05-05 02:00",6.03808978053647,"Approved","OW478"
"2023-05-05 03:00",6.03508590113057,"Approved","OW478"
"2023-05-05 04:00",6.03308202172467,"Approved","OW478"
"2023-05-05 05:00",6.03107814231878,"Approved","OW478"
"2023-05-05 06:00",6.02807426291288,"Approved","OW478"
"2023-05-05 07:00",6.02807038350698,"Approved","OW478"
"2023-05-05 08:00",6.02506650410109,"Approved","OW478"
"2023-05-05 09:00",6.02306262469519,"Approved","OW478"
"2023-05-05 10:00",6.02405874528929,"Approved","OW478"
"2023-05-05 11:00",6.0240548658834,"Approved","OW478"
"2023-05-05 12:00",6.0250509864775,"Approved","OW478"
"2023-05-05 13:00",6.0250471070716,"Approved","OW478"
"2023-05-05 14:00",6.02504322766571,"Approved","OW478"
"2023-05-05 15:00",6.02403934825981,"Approved","OW478"
"2023-05-05 16:00",6.02403546885391,"Approved","OW478"
"2023-05-05 17:00",6.02303158944802,"Approved","OW478"
"2023-05-05 18:00",6.02202771004212,"Approved","OW478"
"2023-05-05 19:00",6.02402383063622,"Approved","OW478"
"2023-05-05 20:00",6.02501995123033,"Approved","OW478"
"2023-05-05 21:00",6.02601607182443,"Approved","OW478"
"2023-05-05 22:00",6.02601219241853,"Approved","OW478"
"2023-05-05 23:00",6.02600831301264,"Approved","OW478"
"2023-05-06 00:00",6.02700443360674,"Approved","OW478"
"2023-05-06 01:00",6.02600055420084,"Approved","OW478"
"2023-05-06 02:00",6.02499667479495,"Approved","OW478"
"2023-05-06 03:00",6.02699279538905,"Approved","OW478"
"2023-05-06 04:00",6.02998891598315,"Approved","OW478"
"2023-05-06 05:00",6.03298503657726,"Approved","OW478"
"2023-05-06 06:00",6.03498115717136,"Approved","OW478"
"2023-05-06 07:00",6.03697727776546,"Approved","OW478"
"2023-05-06 08:00",6.03797339835956,"Approved","OW478"
"2023-05-06 09:00",6.03896951895367,"Approved","OW478"
"2023-05-06 10:00",6.03896563954777,"Approved","OW478"
"2023-05-06 11:00",6.04096176014188,"Approved","OW478"
"2023-05-06 12:00",6.04195788073598,"Approved","OW478"
"2023-05-06 13:00",6.04395400133008,"Approved","OW478"
"2023-05-06 14:00",6.04595012192418,"Approved","OW478"
"2023-05-06 15:00",6.04694624251829,"Approved","OW478"
"2023-05-06 16:00",6.04894236311239,"Approved","OW478"
"2023-05-06 17:00",6.0499384837065,"Approved","OW478"
"2023-05-06 18:00",6.0539346043006,"Approved","OW478"
"2023-05-06 19:00",6.0569307248947,"Approved","OW478"